Regional Weather Roundup
Issued by NWS

Home | Current Version | Previous Version | Text Only | Print | Product List | Glossary On
Versions: 1 2 3 4 5 6 7 8 9 10 11 12 13 14 15 16 17 18 19 20 21 22 23 24 25 26 27 28 29 30 31 32 33 34 35 36 37 38 39 40 41 42 43 44 45 46 47 48 49 50
000
ASUS44 KFWD 232101
RWRTX
NORTH TEXAS HOURLY WEATHER ROUNDUP
NATIONAL WEATHER SERVICE FORT WORTH TX
400 PM CDT THU MAR 23 2017

NOTE: "FAIR" INDICATES FEW OR NO CLOUDS BELOW 12,000 FEET WITH NO
SIGNIFICANT WEATHER AND/OR OBSTRUCTIONS TO VISIBILITY.

TXZ118-119-232200-
DALLAS/FORT WORTH METROPLEX

CITY           SKY/WX    TMP DP  RH WIND       PRES   REMARKS
DFW AIRPORT    MOSUNNY   86  51  29 S31G39    29.90F
DALLAS LOVE    MOSUNNY   86  50  28 S22G31    29.93F
FTW MEACHAM    SUNNY     85  48  27 SE31G41   29.89F
DAL-EXECUTIVE  SUNNY     83  51  33 S18G33    29.93F
FTW-ALLIANCE   MOSUNNY   85  49  28 S26G39    29.89F
FTW-NAS-JRB    SUNNY     85  48  27 S30G44    29.91F
FTW-SPINKS     SUNNY     84  46  26 S25G38    29.93F
ARLINGTON      SUNNY     83  49  30 S23G37    29.92F
GRAND PRAIRIE  SUNNY     82  48  30 SE18G32   29.94F
MESQUITE       SUNNY     82  48  30 MISG      29.96F
LANCASTER      SUNNY     82  52  36 S25G37    29.96F
$$

TXZ091>094-102>105-117-120-121-131>134-232200-
NORTH CENTRAL TEXAS

CITY           SKY/WX    TMP DP  RH WIND       PRES   REMARKS
SHRMAN/DENISON NOT AVBL
GAINESVILLE    SUNNY     83  48  29 S24G37    29.91F
BOWIE          SUNNY     85  47  27 S23G32    29.86F
BRIDGEPORT     SUNNY     84  47  27 S22G33    29.90F
DECATUR        SUNNY     82  48  31 SE25G35   29.89F
DENTON         SUNNY     84  51  31 S29G37    29.91F
MCKINNEY       SUNNY     83  52  34 S26G38    29.92F
BONHAM         SUNNY     82  52  34 S25G33    29.95F
ROCKWALL       SUNNY     83  54  36 S22G38    29.95F
TERRELL        SUNNY     83  50  31 S20G33    29.97F
WAXAHACHIE     SUNNY     83  53  35 S24G33    29.95F
CLEBURNE       SUNNY     82  50  32 MISG      29.94F
GRANBURY       SUNNY     85  47  25 SE25G33   29.90F
$$

TXZ083>090-098>101-113>116-127>130-139>142-154-155-232200-
WESTERN NORTH TEXAS

CITY           SKY/WX    TMP DP  RH WIND       PRES   REMARKS
WICHITA FALLS  SUNNY     85  48  27 S29G41    29.79F
WF-KICKAPOO    SUNNY     86  47  26 S31G40    29.80F
VERNON         SUNNY     86  39  19 S32G45    29.78F
ABILENE        SUNNY     82  47  29 S29G45    29.82F
GRAHAM         SUNNY     85  46  26 S17G33    29.82F
CISCO          SUNNY     82  45  26 S28G46    29.86F
MINERAL WELLS  SUNNY     86  47  25 S31G38    29.87F
STEPHENVILLE   SUNNY     82  47  29 S25G32    29.93F
COMANCHE       SUNNY     82  51  33 S23G32    29.90F
COLEMAN        SUNNY     82  46  27 S25G39    29.88F
$$

TXZ143>147-156>162-174-175-232200-
CENTRAL TEXAS

CITY           SKY/WX    TMP DP  RH WIND       PRES   REMARKS
WACO           SUNNY     82  56  40 S21G31    29.95F
WACO-MCGREGOR  SUNNY     85  51  31 S31G41    29.94F
HILLSBORO      SUNNY     83  53  35 S26G38    29.95F
CORSICANA      SUNNY     84  52  33 S23G33    29.98F
MEXIA          SUNNY     82  53  36 S26G36    29.97F
HEARNE         SUNNY     84  48  28 S26G36    30.01F
CAMERON        SUNNY     85  50  29 S22G39    29.98F
KILLEEN        NOT AVBL
KILLEEN-SKYLRK SUNNY     83  51  33 S28G35    29.95F
FORT HOOD      SUNNY     83  49  30 S30G36    29.92F
GATESVILLE     SUNNY     82  48  30 S24G32    29.96F
HAMILTON       SUNNY     82  48  29 S28G38    29.93F
LAMPASAS       SUNNY     81  53  36 S16G31    29.93F
$$

TXZ095>097-106>112-122>126-135>138-148>153-164>167-232200-
EAST TEXAS

CITY           SKY/WX    TMP DP  RH WIND       PRES   REMARKS
PARIS          SUNNY     82  54  36 S22       29.99F
SULPHUR SPRNGS SUNNY     84  48  28 S20G28    29.99F
GILMER         SUNNY     84  47  27 S14G24    30.00F
MINEOLA        SUNNY     84  52  32 S12G22    29.98F
TYLER          SUNNY     86  50  28 S21G32    30.00F
LONGVIEW       SUNNY     85  50  29 S16G31    30.01F
ATHENS         SUNNY     82  50  32 S18G26    29.98F
PALESTINE      SUNNY     84  53  34 S14G24    30.02F
JACKSONVILLE   SUNNY     83  48  29 S17G26    30.05F
HENDERSON      SUNNY     85  48  27 S16G25    30.04F
CENTER         CLEAR     87  51  29 S15G23    30.07F
NACOGDOCHES    SUNNY     84  52  32 S20G25    30.03F
LUFKIN         LGT RAIN  84  42  22 S20G30    30.05F
$$

SUPPLEMENTAL OBSERVATIONS (CENTRAL)

CITY           SKY/WX    TMP DP  RH WIND       PRES   REMARKS
$$

SUPPLEMENTAL OBSERVATIONS (WEST)

CITY           SKY/WX    TMP DP  RH WIND       PRES   REMARKS
$$

SUPPLEMENTAL OBSERVATIONS (EAST)

CITY           SKY/WX    TMP DP  RH WIND       PRES   REMARKS
$$

SUPPLEMENTAL OBSERVATIONS ARE A COLLECTION OF AUTOMATED INSTRUMENTS
THAT ARE MAINTAINED BY A VARIETY OF FEDERAL AND STATE AGENCIES.
CERTAIN ELEMENTS...SUCH AS HUMIDITY VALUES AND SUSTAINED WIND
SPEEDS...MAY BE APPROXIMATED.




USA.gov is the U.S. government's official web portal to all federal, state and local government web resources and services.